map of ORE home
Great Circle Mapper logo
ORE - Airport
Location
City:  Orléans, France
Name:Bricy
ICAO / IATA:LFOJ / ORE

Details
Type:Airport (Aerodrome, Airfield)
Use:Military
Latitude:47°59'16"N (47.987778)
Longitude:1°45'38"E (1.760556)
Elevation:412 ft (126 m)
Runways:1
Longest:7887 × 148 ft (2404 × 45 m)

Time
Time Zone:UTC+1 (DST+2)
Local Time:

Weather
METAR:LFOJ 261430Z AUTO 31010KT 280V360 9999 NSC 25/14 Q1015
TAF:LFOJ 261100Z 2612/2712 31006KT CAVOK PROB30
TEMPO 2703/2706 3000 BR

Related Locations
Nearby:
Farthest:CHT: 12130 mi / 19521 km
Waitangi [Tuuta], Chatham Islands, NZ

Find:

   beyond  
but within

Other Information
Maps:
NOTAMs:
Links:
Sources:

  
flag of France   

Sectional Chart

Flight Planning
at skyvector.com

Satellite Image

Google Maps Satellite View

 

Copyright © 2004-2014 Karl L. Swartz. All rights reserved.
The Great Circle Mapper name and logo are trademarks of the Great Circle Mapper.
All other trademarks mentioned herein belong to their respective owners.
Please see credits for attibutions and further copyright information.

  Follow gcmap on Facebook Follow gcmap on Twitter

hCard Microformat

Geo Microformat